[[{"header":{"parameterUnit":"m.s-1","parameterCategory":1,"la1":30.2991,"la2":30.254,"lo1":-89.0895,"lo2":-89.0444,"dy":0.0017,"dx":0.0017,"nx":28,"ny":28,"refTime":"2025-09-01T09:00:00:Z","depth":0,"parameterNumber":2,"parameterNumberName":"U-component_of_WINDS"},"data":[0,0,0,0,0,0,0,0,0,0,0,0,0,0,0,0,0,0,0,0,0,0,0,0,0,0,0,0,0,0,0,0,0,0,0,0,0,0,0,0,0,0,0,0,0,0,0,0,0,0,0,0,0,0,0,0,0,0,0.0064,0.0063,0,0.0051,0.0051,0.0051,0.0037,0.0037,0.0037,0.0037,0.0024,0.0024,0.0024,0,0,0,0,0,0,0,0,0,0,0,0,0,0.0074,0.0074,0.0064,0.0063,0.0063,0.0052,0.0051,0.0051,0.0037,0.0037,0.0037,0.0037,0.0024,0.0024,0.0024,0,0,0,0,0,0,0,0,0,0,0,0,0,0.0067,0.0074,0.0064,0.0055,0.0054,0.0052,0.0051,0.0051,0.0037,0.0037,0.0037,0.0037,0.0024,0.0024,0.0024,0.0029,0,0,0.0023,0.0023,0,0,0,0,0,0,0,0,0.0067,0.0066,0.0056,0.0056,0.0055,0.0046,0.0051,0.0044,0.0038,0.0044,0.0037,0.0036,0.0032,0.0031,0.0029,0.0029,0.0028,0.0023,0.0023,0.0023,0.0023,0,0,0,0,0,0,0,0.0068,0.0067,0.0059,0.0056,0.0055,0.0052,0.005,0.0049,0.004,0.0043,0.0042,0.0041,0.0031,0.003,0.0029,0.0028,0.0023,0.0023,0.0023,0.0023,0.003,0.003,0,0,0,0,0,0,0.007,0.0067,0.0059,0.0058,0.006,0.0052,0.005,0.0049,0.004,0.0038,0.0041,0.004,0.003,0.0029,0.0028,0.0034,0.0023,0.0023,0.0023,0.003,0.003,0.0031,0,0,0,0,0,0,0.007,0.0069,0.006,0.0063,0.0061,0.0052,0.005,0.0049,0.0047,0.0038,0.0036,0.0041,0.003,0.0029,0.0029,0.0033,0.0023,0.0023,0.003,0.003,0.003,0.0044,0,0,0,0,0,0,0.007,0.0069,0.0071,0.0063,0.0061,0.0061,0.0051,0.0049,0.0047,0.0046,0.0038,0.0036,0.0029,0.0029,0.0029,0.0032,0.0023,0.0029,0.003,0.003,0.0043,0.0045,0.0046,0,0,0,0,0,0.0071,0.0075,0.0071,0.007,0.0063,0.0061,0.006,0.0052,0.0047,0.0049,0.0043,0.0036,0.0033,0.0029,0.0029,0.0032,0.0029,0.003,0.003,0.0042,0.0044,0.0046,0,0,0,0,0,0,0.0085,0.0074,0.0069,0.0072,0.0067,0.0058,0.006,0.0054,0.0051,0.005,0.0041,0.0039,0.004,0.0036,0.0033,0.0037,0.003,0.003,0.0039,0.0041,0.0043,0.0044,0.0022,0,0,0,0,0,0.0088,0.0087,0.0078,0.0081,0.0079,0.007,0.0069,0.0063,0.0058,0.0056,0.005,0.0046,0.0043,0.0042,0.0039,0.0042,0.004,0.0045,0.0046,0.0047,0.0048,0.0049,0.0051,0.0033,0.0033,0.0033,0,0,0.0095,0.0089,0.0089,0.0083,0.0079,0.0078,0.0068,0.0068,0.0067,0.0056,0.0056,0.0051,0.0045,0.0047,0.0048,0.0044,0.0053,0.0048,0.0049,0.0049,0.005,0.0052,0.0053,0.0033,0.0033,0.0033,0,0,0.0107,0.0102,0.0104,0.01,0.0094,0.0088,0.0088,0.0081,0.0077,0.0077,0.0068,0.0067,0.0063,0.006,0.0057,0.0067,0.0061,0.0067,0.0075,0.0076,0.0078,0.0079,0.0082,0.0084,0.0067,0.0067,0.0067,0,0.0116,0.0114,0.0106,0.0105,0.0103,0.0093,0.0095,0.0091,0.0084,0.0083,0.0079,0.0074,0.0069,0.007,0.0072,0.0071,0.0071,0.0068,0.0078,0.0079,0.008,0.0083,0.0085,0.0068,0.0068,0.0068,0.0068,0,0.0126,0.0125,0.0127,0.0121,0.0119,0.0119,0.0111,0.011,0.0104,0.0099,0.0098,0.0092,0.0088,0.0088,0.0083,0.0088,0.0085,0.008,0.0073,0.0083,0.0086,0.0087,0.0069,0.0069,0.0069,0.0069,0,0,0.0146,0.0135,0.0136,0.0133,0.0125,0.0124,0.0125,0.0121,0.012,0.0115,0.0115,0.0112,0.0107,0.0104,0.0098,0.0099,0.0108,0.0093,0.0093,0.0096,0.0113,0.0117,0.0118,0.0103,0.0103,0.0104,0.0113,0,0.0157,0.0157,0.0149,0.0151,0.015,0.014,0.014,0.0135,0.013,0.0128,0.0122,0.012,0.0114,0.0112,0.0112,0.0106,0.0111,0.0106,0.0103,0.0103,0.0105,0.012,0.0124,0.0134,0.0114,0.0114,0.0114,0,0.0169,0.0166,0.0168,0.016,0.0159,0.0159,0.0155,0.0153,0.0147,0.0144,0.014,0.0133,0.0133,0.0126,0.0125,0.0122,0.012,0.0117,0.0117,0.0117,0.0109,0.012,0.0136,0.0138,0.0116,0.0116,0.0116,0,0.0184,0.018,0.018,0.0178,0.0169,0.0169,0.0165,0.0159,0.0157,0.0153,0.0152,0.0148,0.0146,0.0143,0.0135,0.0131,0.0135,0.0127,0.0131,0.0132,0.0133,0.0133,0.0149,0.0132,0.0132,0.0132,0.0132,0,0.0197,0.0198,0.0187,0.0187,0.0188,0.0179,0.0181,0.0176,0.017,0.017,0.0161,0.016,0.015,0.0148,0.0142,0.0142,0.0141,0.0137,0.0136,0.0138,0.0139,0.0137,0.0136,0.0132,0.0132,0.0132,0.0132,0,0.0213,0.0206,0.0205,0.0197,0.0195,0.0196,0.0188,0.0188,0.0182,0.0181,0.0181,0.0171,0.0169,0.0161,0.0156,0.0151,0.0153,0.015,0.0155,0.0154,0.0159,0.0158,0.0175,0.0176,0.0158,0.0158,0.0158,0,0.0222,0.0223,0.0214,0.0213,0.0209,0.0208,0.0205,0.0196,0.0195,0.0188,0.0189,0.0185,0.0182,0.0178,0.0171,0.0167,0.0164,0.017,0.0163,0.0165,0.0164,0.0164,0.0163,0.0171,0.0171,0.0172,0.0172,0,0.0238,0.0234,0.0231,0.0227,0.0225,0.0221,0.0217,0.0217,0.0206,0.0205,0.0202,0.0199,0.0194,0.0191,0.0186,0.0182,0.0175,0.0174,0.0175,0.0177,0.018,0.0178,0.0159,0.0174,0.0173,0.0173,0.0173,0.0173,0.0251,0.0251,0.0245,0.0242,0.0238,0.0234,0.0234,0.0228,0.0225,0.022,0.0215,0.0213,0.0207,0.0199,0.0196,0.0194,0.019,0.0191,0.0191,0.0192,0.0193,0.018,0.0193,0.0193,0.0192,0.0192,0.0192,0,0.0266,0.0262,0.0259,0.0254,0.0251,0.0245,0.024,0.0239,0.0237,0.0232,0.0229,0.0225,0.0222,0.0214,0.021,0.021,0.0207,0.0209,0.0209,0.0208,0.0196,0.0196,0.0212,0.0212,0.0212,0.0212,0.0212,0.0212,0.0274,0.0274,0.0269,0.0267,0.0263,0.026,0.0258,0.0254,0.025,0.0247,0.0244,0.0239,0.0233,0.0228,0.0225,0.0223,0.0221,0.0225,0.0222,0.0211,0.0209,0.0207,0.0207,0.0225,0.0225,0.0234,0.0234,0.0234]},{"header":{"parameterUnit":"m.s-1","parameterCategory":1,"la1":30.2991,"la2":30.254,"lo1":-89.0895,"lo2":-89.0444,"dy":0.0017,"dx":0.0017,"nx":28,"ny":28,"refTime":"2025-09-01T09:00:00:Z","depth":0,"parameterNumber":3,"parameterNumberName":"V-component_of_WINDS"},"data":[0,0,0,0,0,0,0,0,0,0,0,0,0,0,0,0,0,0,0,0,0,0,0,0,0,0,0,0,0,0,0,0,0,0,0,0,0,0,0,0,0,0,0,0,0,0,0,0,0,0,0,0,0,0,0,0,0,0,-1.1543,-1.1544,0,-1.1625,-1.1626,-1.1626,-1.1659,-1.1659,-1.1659,-1.1658,-1.1744,-1.1747,-1.1749,0,0,0,0,0,0,0,0,0,0,0,0,0,-1.1418,-1.142,-1.1543,-1.1544,-1.1545,-1.1624,-1.1626,-1.1627,-1.1659,-1.1659,-1.1659,-1.1658,-1.1744,-1.1747,-1.1749,0,0,0,0,0,0,0,0,0,0,0,0,0,-1.1483,-1.1421,-1.1543,-1.1571,-1.1574,-1.1624,-1.1626,-1.1627,-1.1659,-1.1659,-1.1658,-1.1658,-1.1743,-1.1746,-1.175,-1.1779,0,0,-1.1761,-1.1763,0,0,0,0,0,0,0,0,-1.148,-1.1488,-1.1565,-1.1569,-1.1573,-1.1631,-1.1613,-1.1678,-1.1659,-1.1627,-1.1658,-1.1658,-1.1707,-1.1714,-1.173,-1.1783,-1.1787,-1.1762,-1.1764,-1.1765,-1.1767,0,0,0,0,0,0,0,-1.1475,-1.1485,-1.1575,-1.1567,-1.1571,-1.158,-1.1589,-1.1626,-1.1668,-1.163,-1.1632,-1.1641,-1.1709,-1.1726,-1.1732,-1.1788,-1.1762,-1.1765,-1.1767,-1.1769,-1.1872,-1.1872,0,0,0,0,0,0,-1.1465,-1.148,-1.1573,-1.1578,-1.1524,-1.1583,-1.1593,-1.1613,-1.1668,-1.1676,-1.1641,-1.1642,-1.172,-1.1728,-1.1735,-1.1774,-1.1765,-1.1769,-1.1771,-1.1871,-1.1872,-1.1872,0,0,0,0,0,0,-1.1463,-1.1473,-1.1569,-1.153,-1.1543,-1.1585,-1.1608,-1.1615,-1.1632,-1.1676,-1.1684,-1.1651,-1.172,-1.173,-1.1768,-1.1778,-1.1771,-1.1774,-1.187,-1.1871,-1.1872,-1.1852,0,0,0,0,0,0,-1.1459,-1.1472,-1.1483,-1.153,-1.1545,-1.16,-1.1608,-1.1616,-1.1638,-1.164,-1.1687,-1.1695,-1.1721,-1.1762,-1.1772,-1.1783,-1.1777,-1.187,-1.1871,-1.1872,-1.1852,-1.1852,-1.1851,0,0,0,0,0,-1.1454,-1.1474,-1.1483,-1.1494,-1.1559,-1.16,-1.1609,-1.1637,-1.1638,-1.165,-1.1679,-1.1694,-1.1775,-1.1766,-1.1777,-1.1789,-1.1869,-1.187,-1.1872,-1.1852,-1.1852,-1.1851,0,0,0,0,0,0,-1.1428,-1.1481,-1.1491,-1.1527,-1.1559,-1.1606,-1.1621,-1.1636,-1.1669,-1.167,-1.1704,-1.1715,-1.175,-1.1774,-1.1763,-1.1821,-1.1823,-1.1827,-1.1804,-1.1805,-1.1805,-1.1799,-1.178,0,0,0,0,0,-1.1426,-1.1454,-1.1499,-1.1526,-1.1542,-1.1579,-1.1598,-1.1617,-1.1652,-1.1666,-1.1697,-1.1731,-1.1765,-1.1786,-1.1819,-1.1855,-1.1867,-1.1869,-1.1869,-1.1869,-1.1871,-1.1893,-1.1895,-1.1876,-1.1876,-1.1876,0,0,-1.1422,-1.1455,-1.1471,-1.1522,-1.1549,-1.1578,-1.159,-1.162,-1.1643,-1.1671,-1.1708,-1.1733,-1.1774,-1.1811,-1.1829,-1.1831,-1.1879,-1.187,-1.1869,-1.1872,-1.1895,-1.1897,-1.1898,-1.1877,-1.1876,-1.1876,0,0,-1.1431,-1.1458,-1.1484,-1.1511,-1.1552,-1.1576,-1.1583,-1.1628,-1.1645,-1.1684,-1.1705,-1.1733,-1.179,-1.1818,-1.184,-1.1861,-1.1876,-1.187,-1.187,-1.1891,-1.1893,-1.1895,-1.1903,-1.1906,-1.1873,-1.1873,-1.1873,0,-1.1422,-1.1467,-1.1496,-1.1526,-1.1548,-1.1574,-1.1601,-1.1626,-1.1675,-1.1691,-1.1693,-1.1765,-1.1794,-1.1839,-1.1844,-1.186,-1.187,-1.1865,-1.189,-1.1892,-1.1894,-1.1903,-1.1906,-1.1872,-1.1872,-1.1872,-1.1872,0,-1.1454,-1.1485,-1.1501,-1.1548,-1.1572,-1.16,-1.1635,-1.1656,-1.1673,-1.1698,-1.1738,-1.1774,-1.1815,-1.1827,-1.1844,-1.1875,-1.1876,-1.1883,-1.1887,-1.1895,-1.1903,-1.1907,-1.1871,-1.1871,-1.1871,-1.1872,0,0,-1.1448,-1.1511,-1.1517,-1.1539,-1.1586,-1.1611,-1.1641,-1.1681,-1.1699,-1.1733,-1.176,-1.1808,-1.1815,-1.184,-1.1861,-1.1879,-1.1895,-1.1885,-1.1887,-1.1887,-1.1933,-1.1927,-1.193,-1.1905,-1.1906,-1.1907,-1.193,0,-1.1464,-1.1518,-1.1546,-1.1588,-1.1618,-1.1643,-1.167,-1.1702,-1.1727,-1.1756,-1.1784,-1.1817,-1.1824,-1.184,-1.1859,-1.1889,-1.1905,-1.1888,-1.1932,-1.1933,-1.1922,-1.1935,-1.1929,-1.1949,-1.1933,-1.1934,-1.1934,0,-1.1489,-1.1523,-1.1568,-1.1613,-1.1627,-1.165,-1.1689,-1.1717,-1.1755,-1.1771,-1.1799,-1.182,-1.1854,-1.1854,-1.1903,-1.189,-1.191,-1.1928,-1.1929,-1.1935,-1.1935,-1.1942,-1.1956,-1.1959,-1.194,-1.1939,-1.1939,0,-1.1481,-1.1538,-1.1572,-1.1591,-1.1644,-1.166,-1.1683,-1.172,-1.1743,-1.1778,-1.1793,-1.1832,-1.1853,-1.1883,-1.1914,-1.1911,-1.196,-1.1962,-1.1976,-1.1975,-1.1985,-1.1984,-1.2003,-1.1997,-1.1997,-1.1996,-1.1996,0,-1.1497,-1.1524,-1.157,-1.1591,-1.1623,-1.1655,-1.1686,-1.1711,-1.1744,-1.1772,-1.1797,-1.1822,-1.1861,-1.1893,-1.1917,-1.1954,-1.1963,-1.1979,-1.1985,-1.1977,-1.1975,-1.1991,-1.199,-1.1997,-1.1997,-1.1997,-1.1997,0,-1.1493,-1.1525,-1.1565,-1.1612,-1.1624,-1.1646,-1.1687,-1.1709,-1.1735,-1.177,-1.178,-1.1821,-1.1859,-1.1893,-1.1943,-1.196,-1.1998,-1.2005,-1.1985,-1.1988,-1.2,-1.1999,-1.203,-1.2037,-1.2025,-1.2025,-1.2025,0,-1.1501,-1.1522,-1.1572,-1.1592,-1.1614,-1.1646,-1.167,-1.1702,-1.1726,-1.1772,-1.1789,-1.1829,-1.1862,-1.1922,-1.1957,-1.1996,-1.2005,-1.2014,-1.2011,-1.2003,-1.2006,-1.2005,-1.2008,-1.2013,-1.2013,-1.2013,-1.2013,0,-1.1511,-1.1526,-1.1558,-1.1597,-1.1624,-1.1655,-1.1688,-1.1703,-1.1743,-1.1768,-1.1807,-1.1833,-1.1884,-1.1924,-1.1967,-1.1992,-1.201,-1.2014,-1.2019,-1.2011,-1.1999,-1.2007,-1.1985,-1.2013,-1.2013,-1.2013,-1.2013,-1.2013,-1.1515,-1.1535,-1.1573,-1.1609,-1.1637,-1.1667,-1.1691,-1.172,-1.1752,-1.1797,-1.1814,-1.1854,-1.1894,-1.1953,-1.1978,-1.2011,-1.2014,-1.2021,-1.2024,-1.2025,-1.2024,-1.1993,-1.2019,-1.2019,-1.2019,-1.2019,-1.2019,0,-1.1527,-1.1553,-1.1586,-1.163,-1.1659,-1.1672,-1.1709,-1.1732,-1.1767,-1.1801,-1.1834,-1.1879,-1.1918,-1.1956,-1.1998,-1.2017,-1.2026,-1.2026,-1.2026,-1.2031,-1.2018,-1.201,-1.2018,-1.2018,-1.2018,-1.2018,-1.2018,-1.2018,-1.1537,-1.1573,-1.1593,-1.1644,-1.167,-1.1709,-1.1729,-1.1758,-1.1785,-1.1835,-1.1867,-1.1891,-1.1928,-1.1972,-1.2009,-1.202,-1.2034,-1.2033,-1.2045,-1.2032,-1.2032,-1.2032,-1.2024,-1.2035,-1.2035,-1.2056,-1.2056,-1.2056]}]]